Find STARLINK-37265

NORAD ID: 799500978 Int'l Des: 2026-135C Constellation: starlink operational

当前视图

正在加载3D地球...

About STARLINK-37265

STARLINK-37265 (NORAD 799500978) is a starlink constellation satellite launched Jun 8, 2026

关于 STARLINK-37265

正在加载描述...

即将过境

Passes for default location (London). Set your location on the main map for personalized predictions.

高度历史

Loading altitude history...

两行轨道根数

1 99999C 2026135C 26167.13590278 .00424700 00000-0 658560-4 0 1679
2 99999 97.2795 193.9468 0010517 265.7167 150.2355 16.03834806 15
Epoch: Jun 16, 2026 • Age: 6 hours